OpenBCM V1.07b12 (Linux)

Packet Radio Mailbox

DB0FHN

[JN59NK Nuernberg]

 Login: GUEST





  
I6KZR  > KEPLER   30.12.02 22:26l 1460 Lines 39195 Bytes #999 (0) @ WW
BID : 15220_IK6WID
Read: DB0FHN GUEST
Subj: Old Istantrak Keplerians #364
Path: DB0FHN<DB0RGB<OK0PPL<RZ6HXA<IK1ZNW<IK5CKL<IW5CWB<I4UKI<IK6ZDE<I6ZLO<
      IK6WID
Sent: 021230/1915Z @:IK6WID.#AP.IMAR.ITA.EU #:15220 [MONTE URANO]  FBB7.00i
From: I6KZR@IK6WID.#AP.IMAR.ITA.EU
To  : KEPLER@WW


Satellite: OSCAR 7
Catalog number: 07530
Epoch time:      102362.17888534
Element set:     138 
Inclination:      101.7700 deg
RA of node:        45.4411 deg
Eccentricity:    0.0012341
Arg of perigee:   178.9261 deg
Mean anomaly:     181.1839 deg
Mean motion:   12.53563044 rev/day
Decay rate:   -2.9000E-007 rev/day^2
Epoch rev:           28662
Checksum:              286

Satellite: GOES 2
Catalog number: 10061
Epoch time:      102359.35983672
Element set:     32 
Inclination:       14.1180 deg
RA of node:        13.8737 deg
Eccentricity:    0.0014065
Arg of perigee:   196.4899 deg
Mean anomaly:     163.4904 deg
Mean motion:    0.99401889 rev/day
Decay rate:   -3.0500E-006 rev/day^2
Epoch rev:            3828
Checksum:              302

Satellite: GOES 3
Catalog number: 10953
Epoch time:      102363.07957895
Element set:     872 
Inclination:       13.3861 deg
RA of node:        17.6217 deg
Eccentricity:    0.0004414
Arg of perigee:   337.6713 deg
Mean anomaly:      22.3167 deg
Mean motion:    1.00277473 rev/day
Decay rate:   -9.1999E-007 rev/day^2
Epoch rev:            4298
Checksum:              427

Satellite: GOES 6
Catalog number: 14050
Epoch time:      102361.20537289
Element set:     407 
Inclination:       10.3329 deg
RA of node:        35.8606 deg
Eccentricity:    0.0004000
Arg of perigee:   332.7358 deg
Mean anomaly:      27.2428 deg
Mean motion:    1.00286086 rev/day
Decay rate:    6.6000E-007 rev/day^2
Epoch rev:           13010
Checksum:              245

Satellite: OSCAR 10
Catalog number: 14129
Epoch time:      102356.12292339
Element set:     907 
Inclination:       25.8271 deg
RA of node:       174.0668 deg
Eccentricity:    0.6049945
Arg of perigee:   312.5642 deg
Mean anomaly:      10.0639 deg
Mean motion:    2.05871554 rev/day
Decay rate:   -2.6699E-006 rev/day^2
Epoch rev:           11886
Checksum:              321

Satellite: OSCAR 11 (UoSA
Catalog number: 14781
Epoch time:      102363.90110086
Element set:     31 
Inclination:       98.1111 deg
RA of node:       332.4679 deg
Eccentricity:    0.0009927
Arg of perigee:    21.3324 deg
Mean anomaly:     338.8295 deg
Mean motion:   14.77834399 rev/day
Decay rate:    2.8430E-005 rev/day^2
Epoch rev:             875
Checksum:              311

Satellite: NOAA 10
Catalog number: 16969
Epoch time:      102363.85573357
Element set:     610 
Inclination:       98.7248 deg
RA of node:       353.0870 deg
Eccentricity:    0.0011715
Arg of perigee:   233.0003 deg
Mean anomaly:     127.0104 deg
Mean motion:   14.27042865 rev/day
Decay rate:    3.9599E-006 rev/day^2
Epoch rev:           84667
Checksum:              320

Satellite: GOES 7
Catalog number: 17561
Epoch time:      102355.38651376
Element set:     789 
Inclination:        7.4944 deg
RA of node:        55.8496 deg
Eccentricity:    0.0008079
Arg of perigee:   326.4312 deg
Mean anomaly:      34.0198 deg
Mean motion:    1.00298198 rev/day
Decay rate:    1.0200E-006 rev/day^2
Epoch rev:            4115
Checksum:              307

Satellite: COSMOS 1861
Catalog number: 18129
Epoch time:      102364.58096128
Element set:     179 
Inclination:       82.9249 deg
RA of node:       183.5174 deg
Eccentricity:    0.0012766
Arg of perigee:    12.0387 deg
Mean anomaly:     348.1069 deg
Mean motion:   13.72695212 rev/day
Decay rate:    9.0999E-007 rev/day^2
Epoch rev:           77765
Checksum:              366

Satellite: EUTELSAT 1-F4 
Catalog number: 18351
Epoch time:      102352.12522730
Element set:     23 
Inclination:        7.0733 deg
RA of node:        58.7527 deg
Eccentricity:    0.0004962
Arg of perigee:   184.4653 deg
Mean anomaly:     172.0391 deg
Mean motion:    0.96710043 rev/day
Decay rate:   -6.1999E-007 rev/day^2
Epoch rev:            4206
Checksum:              396

Satellite: NOAA 11
Catalog number: 19531
Epoch time:      102363.86581543
Element set:     448 
Inclination:       98.9081 deg
RA of node:        80.3999 deg
Eccentricity:    0.0011743
Arg of perigee:   350.2930 deg
Mean anomaly:       9.8009 deg
Mean motion:   14.14512594 rev/day
Decay rate:    3.6100E-006 rev/day^2
Epoch rev:           73563
Checksum:              312

Satellite: ASTRA 1A
Catalog number: 19688
Epoch time:      102356.82543404
Element set:     549 
Inclination:        1.2424 deg
RA of node:        96.2799 deg
Eccentricity:    0.0003229
Arg of perigee:   161.5585 deg
Mean anomaly:     135.7322 deg
Mean motion:    1.00273958 rev/day
Decay rate:    5.2000E-007 rev/day^2
Epoch rev:            3161
Checksum:              291

Satellite: OSCAR 14 (UOSA
Catalog number: 20437
Epoch time:      102363.18454427
Element set:     129 
Inclination:       98.2792 deg
RA of node:        44.2333 deg
Eccentricity:    0.0011165
Arg of perigee:   359.4982 deg
Mean anomaly:       0.6186 deg
Mean motion:   14.31219356 rev/day
Decay rate:    3.0799E-006 rev/day^2
Epoch rev:           67514
Checksum:              316

Satellite: OSCAR 15 (UOSA
Catalog number: 20438
Epoch time:      102361.55773986
Element set:     758 
Inclination:       98.2539 deg
RA of node:        32.0434 deg
Eccentricity:    0.0010652
Arg of perigee:    15.1442 deg
Mean anomaly:     345.0061 deg
Mean motion:   14.30182654 rev/day
Decay rate:    2.9099E-006 rev/day^2
Epoch rev:           67458
Checksum:              318

Satellite: OSCAR 16 (PACS
Catalog number: 20439
Epoch time:      102362.71852714
Element set:     830 
Inclination:       98.3257 deg
RA of node:        55.1677 deg
Eccentricity:    0.0011417
Arg of perigee:     7.2262 deg
Mean anomaly:     352.9070 deg
Mean motion:   14.31449691 rev/day
Decay rate:    3.8200E-006 rev/day^2
Epoch rev:           67511
Checksum:              297

Satellite: OSCAR 17 (DOVE
Catalog number: 20440
Epoch time:      102362.71748044
Element set:     716 
Inclination:       98.3453 deg
RA of node:        58.9390 deg
Eccentricity:    0.0011543
Arg of perigee:     5.5975 deg
Mean anomaly:     354.5342 deg
Mean motion:   14.31725909 rev/day
Decay rate:    4.8500E-006 rev/day^2
Epoch rev:           67518
Checksum:              316

Satellite: OSCAR 18 (WEBE
Catalog number: 20441
Epoch time:      102364.24000349
Element set:     975 
Inclination:       98.3425 deg
RA of node:        59.6457 deg
Eccentricity:    0.0011907
Arg of perigee:     2.7771 deg
Mean anomaly:     357.3471 deg
Mean motion:   14.31533057 rev/day
Decay rate:    3.7199E-006 rev/day^2
Epoch rev:           67538
Checksum:              321

Satellite: OSCAR 19 (LUSA
Catalog number: 20442
Epoch time:      102364.22415058
Element set:     928 
Inclination:       98.3552 deg
RA of node:        62.5630 deg
Eccentricity:    0.0012365
Arg of perigee:     1.3135 deg
Mean anomaly:     358.8075 deg
Mean motion:   14.31695072 rev/day
Decay rate:    3.6799E-006 rev/day^2
Epoch rev:           67543
Checksum:              314

Satellite: JAS 1B (FUJI 2
Catalog number: 20480
Epoch time:      102362.85900547
Element set:     451 
Inclination:       99.0399 deg
RA of node:       330.3526 deg
Eccentricity:    0.0540980
Arg of perigee:   120.9298 deg
Mean anomaly:     244.6144 deg
Mean motion:   12.83327021 rev/day
Decay rate:   -1.5000E-007 rev/day^2
Epoch rev:           60388
Checksum:              296

Satellite: HST
Catalog number: 20580
Epoch time:      102364.45210509
Element set:     281 
Inclination:       28.4681 deg
RA of node:         3.5949 deg
Eccentricity:    0.0004359
Arg of perigee:   102.8098 deg
Mean anomaly:      24.0867 deg
Mean motion:   14.97591391 rev/day
Decay rate:    2.6010E-005 rev/day^2
Epoch rev:           49511
Checksum:              294

Satellite: EUTELSAT 2-F1
Catalog number: 20777
Epoch time:      102363.88046470
Element set:     9 
Inclination:        3.3773 deg
RA of node:        85.0294 deg
Eccentricity:    0.0001628
Arg of perigee:   236.2766 deg
Mean anomaly:     169.8068 deg
Mean motion:    1.00384072 rev/day
Decay rate:   -1.1800E-006 rev/day^2
Epoch rev:            2559
Checksum:              297

Satellite: FENGYUN 1B
Catalog number: 20788
Epoch time:      102364.51120402
Element set:     846 
Inclination:       99.0198 deg
RA of node:       342.1959 deg
Eccentricity:    0.0015910
Arg of perigee:     9.1081 deg
Mean anomaly:     351.0370 deg
Mean motion:   14.02133921 rev/day
Decay rate:    5.5099E-006 rev/day^2
Epoch rev:           63052
Checksum:              281

Satellite: EUTELSAT 2-F2
Catalog number: 21056
Epoch time:      102363.89428382
Element set:     603 
Inclination:        2.6092 deg
RA of node:        88.4131 deg
Eccentricity:    0.0002415
Arg of perigee:   217.3203 deg
Mean anomaly:     162.7392 deg
Mean motion:    1.00269142 rev/day
Decay rate:    1.2799E-006 rev/day^2
Epoch rev:            3137
Checksum:              272

Satellite: INFORMATOR 1
Catalog number: 21087
Epoch time:      102364.05473910
Element set:     587 
Inclination:       82.9413 deg
RA of node:       354.8158 deg
Eccentricity:    0.0036818
Arg of perigee:    32.6740 deg
Mean anomaly:     327.6679 deg
Mean motion:   13.74921106 rev/day
Decay rate:    8.7000E-007 rev/day^2
Epoch rev:           59794
Checksum:              330

Satellite: COSMOS 2123
Catalog number: 21089
Epoch time:      102361.10564906
Element set:     478 
Inclination:       82.9240 deg
RA of node:       221.0430 deg
Eccentricity:    0.0030837
Arg of perigee:    74.5476 deg
Mean anomaly:     285.9088 deg
Mean motion:   13.74399034 rev/day
Decay rate:    1.6100E-006 rev/day^2
Epoch rev:           59644
Checksum:              314

